[TLELIST] Archives

 

Current TLEs

February 14th 2007 PDT

HST 1 20580U 90037B 07044.86843381 .00000399 00000-0 18167-4 0 8076 2 20580 028.4687 274.2457 0003768 227.8267 132.1999 15.00190342721426 ISS (ZARYA) 1 25544U 98067A 07045.37031951 .00018565 00000-0 10798-3 0 6399 2 25544 051.6346 018.6993 0020834 204.4646 316.0976 15.78254770471376 CXO 1 25867U 99040B 07040.70833333 +.00000311 +00000-0 +00000-0 0 00335 2 25867 061.1239 092.0425 6057805 286.2773 355.0198 00.37804874001777 ____________________________________________________________________ These 2-Line ...Continue Reading

Current TLEs

February 13th 2007 PDT

HST 1 20580U 90037B 07042.93913963 +.00000436 +00000-0 +21020-4 0 08104 2 20580 028.4689 286.8219 0003766 207.4466 152.5927 15.00189642721132 ISS (ZARYA) 1 25544U 98067A 07044.47202664 .00018332 00000-0 10682-3 0 6349 2 25544 051.6347 023.3452 0021006 201.3843 251.9282 15.78219048471238 CXO 1 25867U 99040B 07040.70833333 +.00000311 +00000-0 +00000-0 0 00335 2 25867 061.1239 092.0425 6057805 286.2773 355.0198 00.37804874001777 ____________________________________________________________________ These 2-Line ...Continue Reading

Current TLEs

February 12th 2007 PDT

HST 1 20580U 90037B 07043.07219429 .00000441 00000-0 21472-4 0 8068 2 20580 028.4690 285.9545 0003766 208.6048 151.4336 15.00189767721157 ISS (ZARYA) 1 25544U 98067A 07043.52326586 .00017707 00000-0 10346-3 0 6278 2 25544 051.6345 028.2481 0021284 197.6518 261.6022 15.78181199471084 CXO 1 25867U 99040B 07040.70833333 +.00000311 +00000-0 +00000-0 0 00335 2 25867 061.1239 092.0425 6057805 286.2773 355.0198 00.37804874001777 ____________________________________________________________________ These 2-Line ...Continue Reading

Current TLEs

February 11th 2007 PDT

HST 1 20580U 90037B 07042.00775594 .00000446 00000-0 21815-4 0 8055 2 20580 028.4691 292.8931 0003778 197.7988 162.2469 15.00189219720998 ISS (ZARYA) 1 25544U 98067A 07042.50919139 .00020032 00000-0 11664-3 0 6221 2 25544 051.6342 033.4859 0021381 193.9593 260.0593 15.78150652470926 CXO 1 25867U 99040B 07040.70833333 +.00000311 +00000-0 +00000-0 0 00335 2 25867 061.1239 092.0425 6057805 286.2773 355.0198 00.37804874001777 ____________________________________________________________________ These 2-Line ...Continue Reading

Current TLEs

February 10th 2007 PDT

HST 1 20580U 90037B 07040.87678963 .00000464 00000-0 23263-4 0 8048 2 20580 028.4693 300.2655 0003800 186.2388 173.8150 15.00188734720828 ISS (ZARYA) 1 25544U 98067A 07041.50456662 .00021107 00000-0 12285-3 0 6164 2 25544 051.6339 038.6776 0021520 190.0218 312.6008 15.78113247470760 CXO 1 25867U 99040B 07040.70833333 +.00000311 +00000-0 +00000-0 0 00335 2 25867 061.1239 092.0425 6057805 286.2773 355.0198 00.37804874001777 ____________________________________________________________________ These 2-Line ...Continue Reading

Current TLEs

February 9th 2007 PDT

HST 1 20580U 90037B 07038.94749382 +.00000477 +00000-0 +24250-4 0 08385 2 20580 028.4694 312.8414 0003805 165.7629 194.3067 15.00187670720537 ISS (ZARYA) 1 25544U 98067A 07040.49053565 .00020267 00000-0 11837-3 0 6096 2 25544 051.6341 043.9168 0021558 186.1535 311.7254 15.78066708470601 CXO 1 25867U 99040B 07038.08333333 +.00000277 +00000-0 +00000-0 0 00328 2 25867 061.1092 092.0829 6054425 286.3425 357.5993 00.37805054001762 ____________________________________________________________________ These 2-Line ...Continue Reading

Current TLEs

February 8th 2007 PDT

HST 1 20580U 90037B 07039.14707625 .00000474 00000-0 24043-4 0 8031 2 20580 028.4694 311.5404 0003805 167.8361 192.2319 15.00187769720567 ISS (ZARYA) 1 25544U 98067A 07039.47980691 .00069433 00000-0 39404-3 0 6033 2 25544 051.6368 049.1420 0021268 182.6629 329.4135 15.78051796470449 CXO 1 25867U 99040B 07038.08333333 +.00000277 +00000-0 +00000-0 0 00328 2 25867 061.1092 092.0829 6054425 286.3425 357.5993 00.37805054001762 ____________________________________________________________________ These 2-Line ...Continue Reading

Current TLEs

February 7th 2007 PDT

HST 1 20580U 90037B 07037.94958164 .00000487 00000-0 25031-4 0 8024 2 20580 028.4696 319.3465 0003806 154.5062 205.5712 15.00187161720385 ISS (ZARYA) 1 25544U 98067A 07038.52742509 .00016742 00000-0 98867-4 0 5956 2 25544 051.6328 054.0596 0021959 178.5864 319.5103 15.77975030470299 CXO 1 25867U 99040B 07038.08333333 +.00000277 +00000-0 +00000-0 0 00328 2 25867 061.1092 092.0829 6054425 286.3425 357.5993 00.37805054001762 ____________________________________________________________________ These 2-Line ...Continue Reading

Current TLEs

February 6th 2007 PDT

HST 1 20580U 90037B 07035.95375565 +.00000516 +00000-0 +27339-4 0 08218 2 20580 028.4696 332.3567 0003823 133.4141 226.6770 15.00186079720088 ISS (ZARYA) 1 25544U 98067A 07037.51752125 .00016501 00000-0 97659-4 0 5882 2 25544 051.6337 059.2775 0021982 174.7460 342.5552 15.77938813470136 CXO 1 25867U 99040B 07035.41666667 +.00000231 +00000-0 +00000-0 0 00310 2 25867 061.0981 092.1369 6051660 286.4010 354.5054 00.37804162001750 ____________________________________________________________________ These 2-Line ...Continue Reading

Current TLEs

February 5th 2007 PDT

HST 1 20580U 90037B 07036.21986579 .00000519 00000-0 27528-4 0 7987 2 20580 028.4697 330.6220 0003831 136.0886 224.0007 15.00186289720123 ISS (ZARYA) 1 25544U 98067A 07036.50297727 .00018141 00000-0 10701-3 0 5820 2 25544 051.6342 064.5176 0022478 170.9322 339.3505 15.77910074469973 CXO 1 25867U 99040B 07035.41666667 +.00000231 +00000-0 +00000-0 0 00310 2 25867 061.0981 092.1369 6051660 286.4010 354.5054 00.37804162001750 ____________________________________________________________________ These 2-Line ...Continue Reading
  • This mailing list is a public mailing list - anyone may join or leave, at any time.
  • This mailing list is announce-only.

International Space Station (ISS) / Hubble Space Telescope (HST) / Chandra X-Ray Observatory Orbital Data via EMAIL

Privacy Policy:

Private list